"Sample Date","Sample Time","Sensor Name","Sample Value","Units","Flow Rate","Sample Interval","Sample Volume","Laser Status","Number Channels","Micron Size 0","Counts/Channel 0","Micron Size 1","Counts/Channel 1","Micron Size 2","Counts/Channel 2","Micron Size 3","Counts/Channel 3","Micron Size 4","Counts/Channel 4","Micron Size 5","Counts/Channel 5","Micron Size 6","Counts/Channel 6","Micron Size 7","Counts/Channel 7","Micron Size 8","Counts/Channel 8","Micron Size 9","Counts/Channel 9","Micron Size 10","Counts/Channel 10","Micron Size 11","Counts/Channel 11","Micron Size 12","Counts/Channel 12","Micron Size 13","Counts/Channel 13","Micron Size 14","Counts/Channel 14","Micron Size 15","Counts/Channel 15","Micron Size 16","Counts/Channel 16","Micron Size 17","Counts/Channel 17","Micron Size 18","Counts/Channel 18","Micron Size 19","Counts/Channel 19","Micron Size 20","Counts/Channel 20","Micron Size 21","Counts/Channel 21","Micron Size 22","Counts/Channel 22","Micron Size 23","Counts/Channel 23","Micron Size 24","Counts/Channel 24","Micron Size 25","Counts/Channel 25","Micron Size 26","Counts/Channel 26","Micron Size 27","Counts/Channel 27","Micron Size 28","Counts/Channel 28","Micron Size 29","Counts/Channel 29","Micron Size 30","Counts/Channel 30","Micron Size 31","Counts/Channel 31"
"07/10/06","03:00:02","AMMA06",34452.000,"cc",28337.096,6.00,2833.710,1,6,0.100,18190.000,0.200,13758.000,0.300,2222.000,0.500,203.000,1.000,79.000,5.000,0
"07/10/06","03:00:08","AMMA06",34428.000,"cc",28327.791,6.00,2832.779,1,6,0.100,17839.000,0.200,14046.000,0.300,2314.000,0.500,155.000,1.000,74.000,5.000,0
"07/10/06","03:00:14","AMMA06",34209.000,"cc",28289.262,6.00,2828.926,1,6,0.100,17721.000,0.200,13969.000,0.300,2303.000,0.500,136.000,1.000,79.000,5.000,1.000
"07/10/06","03:00:20","AMMA06",33993.000,"cc",28316.500,6.00,2831.650,1,6,0.100,17399.000,0.200,14059.000,0.300,2286.000,0.500,159.000,1.000,90.000,5.000,0
"07/10/06","03:00:26","AMMA06",34088.000,"cc",28302.559,6.00,2830.256,1,6,0.100,17649.000,0.200,13760.000,0.300,2414.000,0.500,198.000,1.000,67.000,5.000,0
"07/10/06","03:00:32","AMMA06",34302.000,"cc",28367.449,6.00,2836.745,1,6,0.100,17773.000,0.200,13998.000,0.300,2332.000,0.500,142.000,1.000,57.000,5.000,0
"07/10/06","03:00:38","AMMA06",34340.000,"cc",28298.891,6.00,2829.889,1,6,0.100,17832.000,0.200,14071.000,0.300,2257.000,0.500,127.000,1.000,53.000,5.000,0
"07/10/06","03:00:44","AMMA06",34003.000,"cc",28361.908,6.00,2836.191,1,6,0.100,17591.000,0.200,13910.000,0.300,2307.000,0.500,137.000,1.000,58.000,5.000,0
"07/10/06","03:00:50","AMMA06",33728.000,"cc",28310.395,6.00,2831.040,1,6,0.100,17595.000,0.200,13651.000,0.300,2285.000,0.500,139.000,1.000,58.000,5.000,0
"07/10/06","03:00:56","AMMA06",34232.000,"cc",28313.738,6.00,2831.374,1,6,0.100,17768.000,0.200,13987.000,0.300,2277.000,0.500,146.000,1.000,54.000,5.000,0
"07/10/06","03:01:02","AMMA06",33715.000,"cc",28317.940,6.00,2831.794,1,6,0.100,17478.000,0.200,13714.000,0.300,2352.000,0.500,127.000,1.000,44.000,5.000,0
"07/10/06","03:01:08","AMMA06",33913.000,"cc",28359.022,6.00,2835.902,1,6,0.100,17645.000,0.200,13809.000,0.300,2294.000,0.500,130.000,1.000,35.000,5.000,0
"07/10/06","03:01:14","AMMA06",33214.000,"cc",28321.611,6.00,2832.161,1,6,0.100,17442.000,0.200,13437.000,0.300,2161.000,0.500,123.000,1.000,51.000,5.000,0
"07/10/06","03:01:20","AMMA06",33696.000,"cc",28303.854,6.00,2830.386,1,6,0.100,17649.000,0.200,13656.000,0.300,2210.000,0.500,130.000,1.000,51.000,5.000,0
"07/10/06","03:01:26","AMMA06",33963.000,"cc",28360.652,6.00,2836.065,1,6,0.100,17726.000,0.200,13795.000,0.300,2237.000,0.500,138.000,1.000,67.000,5.000,0
"07/10/06","03:01:32","AMMA06",33784.000,"cc",28229.041,6.00,2822.904,1,6,0.100,17674.000,0.200,13699.000,0.300,2232.000,0.500,131.000,1.000,48.000,5.000,0
"07/10/06","03:01:38","AMMA06",33977.000,"cc",28329.775,6.00,2832.978,1,6,0.100,17959.000,0.200,13601.000,0.300,2231.000,0.500,121.000,1.000,65.000,5.000,0
"07/10/06","03:01:44","AMMA06",33493.000,"cc",28341.959,6.00,2834.196,1,6,0.100,17811.000,0.200,13364.000,0.300,2136.000,0.500,133.000,1.000,49.000,5.000,0
"07/10/06","03:01:50","AMMA06",33809.000,"cc",28294.545,6.00,2829.455,1,6,0.100,17744.000,0.200,13710.000,0.300,2203.000,0.500,103.000,1.000,49.000,5.000,0
"07/10/06","03:01:56","AMMA06",33663.000,"cc",28322.428,6.00,2832.243,1,6,0.100,17813.000,0.200,13560.000,0.300,2125.000,0.500,120.000,1.000,45.000,5.000,0
"07/10/06","03:02:02","AMMA06",33593.000,"cc",28323.231,6.00,2832.323,1,6,0.100,18016.000,0.200,13223.000,0.300,2171.000,0.500,136.000,1.000,47.000,5.000,0
"07/10/06","03:02:08","AMMA06",33871.000,"cc",28357.613,6.00,2835.762,1,6,0.100,17889.000,0.200,13683.000,0.300,2123.000,0.500,124.000,1.000,52.000,5.000,0
"07/10/06","03:02:14","AMMA06",33627.000,"cc",28264.520,6.00,2826.452,1,6,0.100,17705.000,0.200,13656.000,0.300,2093.000,0.500,122.000,1.000,51.000,5.000,0
"07/10/06","03:02:20","AMMA06",33311.000,"cc",28335.438,6.00,2833.544,1,6,0.100,17788.000,0.200,13284.000,0.300,2053.000,0.500,135.000,1.000,51.000,5.000,0
"07/10/06","03:02:26","AMMA06",33434.000,"cc",28329.252,6.00,2832.925,1,6,0.100,17752.000,0.200,13397.000,0.300,2139.000,0.500,101.000,1.000,45.000,5.000,0
"07/10/06","03:02:32","AMMA06",33295.000,"cc",28307.410,6.00,2830.741,1,6,0.100,17770.000,0.200,13331.000,0.300,2030.000,0.500,127.000,1.000,37.000,5.000,0
"07/10/06","03:02:38","AMMA06",33804.000,"cc",28311.014,6.00,2831.102,1,6,0.100,18115.000,0.200,13450.000,0.300,2069.000,0.500,119.000,1.000,51.000,5.000,0
"07/10/06","03:02:44","AMMA06",33700.000,"cc",28266.150,6.00,2826.615,1,6,0.100,18039.000,0.200,13382.000,0.300,2093.000,0.500,123.000,1.000,63.000,5.000,0
"07/10/06","03:02:50","AMMA06",33536.000,"cc",28301.514,6.00,2830.152,1,6,0.100,17928.000,0.200,13365.000,0.300,2046.000,0.500,137.000,1.000,60.000,5.000,0
"07/10/06","03:02:56","AMMA06",33626.000,"cc",28335.996,6.00,2833.600,1,6,0.100,17907.000,0.200,13500.000,0.300,2025.000,0.500,130.000,1.000,64.000,5.000,0
"07/10/06","03:03:02","AMMA06",33798.000,"cc",28332.588,6.00,2833.259,1,6,0.100,17961.000,0.200,13612.000,0.300,2053.000,0.500,117.000,1.000,55.000,5.000,0
"07/10/06","03:03:08","AMMA06",33811.000,"cc",28287.840,6.00,2828.784,1,6,0.100,18019.000,0.200,13577.000,0.300,2050.000,0.500,122.000,1.000,43.000,5.000,0
"07/10/06","03:03:14","AMMA06",34046.000,"cc",28334.313,6.00,2833.431,1,6,0.100,18158.000,0.200,13631.000,0.300,2065.000,0.500,134.000,1.000,58.000,5.000,0
"07/10/06","03:03:20","AMMA06",33852.000,"cc",28300.924,6.00,2830.093,1,6,0.100,18143.000,0.200,13409.000,0.300,2112.000,0.500,129.000,1.000,59.000,5.000,0
"07/10/06","03:03:26","AMMA06",34005.000,"cc",28349.438,6.00,2834.944,1,6,0.100,18230.000,0.200,13571.000,0.300,2024.000,0.500,126.000,1.000,54.000,5.000,0
"07/10/06","03:03:32","AMMA06",33893.000,"cc",28295.512,6.00,2829.551,1,6,0.100,18024.000,0.200,13631.000,0.300,2080.000,0.500,113.000,1.000,45.000,5.000,0
"07/10/06","03:03:38","AMMA06",33807.000,"cc",28308.481,6.00,2830.848,1,6,0.100,17944.000,0.200,13565.000,0.300,2122.000,0.500,123.000,1.000,53.000,5.000,0
"07/10/06","03:03:44","AMMA06",34184.000,"cc",28361.373,6.00,2836.138,1,6,0.100,18195.000,0.200,13776.000,0.300,2021.000,0.500,128.000,1.000,64.000,5.000,0
"07/10/06","03:03:50","AMMA06",33969.000,"cc",28294.373,6.00,2829.438,1,6,0.100,18113.000,0.200,13591.000,0.300,2072.000,0.500,144.000,1.000,49.000,5.000,0
"07/10/06","03:03:56","AMMA06",34289.000,"cc",28288.945,6.00,2828.895,1,6,0.100,18276.000,0.200,13786.000,0.300,2047.000,0.500,129.000,1.000,51.000,5.000,0
"07/10/06","03:04:02","AMMA06",34356.000,"cc",28342.514,6.00,2834.252,1,6,0.100,18289.000,0.200,13798.000,0.300,2078.000,0.500,141.000,1.000,50.000,5.000,0
"07/10/06","03:04:08","AMMA06",34298.000,"cc",28318.193,6.00,2831.820,1,6,0.100,18056.000,0.200,13932.000,0.300,2130.000,0.500,125.000,1.000,55.000,5.000,0
"07/10/06","03:04:14","AMMA06",34752.000,"cc",28296.195,6.00,2829.620,1,6,0.100,18449.000,0.200,14004.000,0.300,2127.000,0.500,123.000,1.000,49.000,5.000,0
"07/10/06","03:04:20","AMMA06",34010.000,"cc",28334.432,6.00,2833.443,1,6,0.100,18028.000,0.200,13727.000,0.300,2074.000,0.500,122.000,1.000,59.000,5.000,0
"07/10/06","03:04:26","AMMA06",34021.000,"cc",28313.807,6.00,2831.381,1,6,0.100,18062.000,0.200,13652.000,0.300,2138.000,0.500,119.000,1.000,50.000,5.000,0
"07/10/06","03:04:32","AMMA06",34069.000,"cc",28335.492,6.00,2833.549,1,6,0.100,18060.000,0.200,13731.000,0.300,2105.000,0.500,127.000,1.000,46.000,5.000,0
"07/10/06","03:04:38","AMMA06",34237.000,"cc",28284.676,6.00,2828.468,1,6,0.100,18308.000,0.200,13653.000,0.300,2068.000,0.500,156.000,1.000,52.000,5.000,0
"07/10/06","03:04:44","AMMA06",34581.000,"cc",28305.893,6.00,2830.589,1,6,0.100,18372.000,0.200,13973.000,0.300,2059.000,0.500,115.000,1.000,62.000,5.000,0
"07/10/06","03:04:50","AMMA06",34433.000,"cc",28303.514,6.00,2830.352,1,6,0.100,18297.000,0.200,13852.000,0.300,2112.000,0.500,115.000,1.000,57.000,5.000,0
"07/10/06","03:04:56","AMMA06",34412.000,"cc",28293.715,6.00,2829.372,1,6,0.100,18347.000,0.200,13775.000,0.300,2116.000,0.500,118.000,1.000,56.000,5.000,0
"07/10/06","03:05:02","AMMA06",34010.000,"cc",28336.531,6.00,2833.653,1,6,0.100,17969.000,0.200,13710.000,0.300,2132.000,0.500,122.000,1.000,77.000,5.000,0
"07/10/06","03:05:08","AMMA06",34608.000,"cc",28358.717,6.00,2835.872,1,6,0.100,18344.000,0.200,13921.000,0.300,2176.000,0.500,114.000,1.000,53.000,5.000,0
"07/10/06","03:05:14","AMMA06",35554.000,"cc",28334.633,6.00,2833.463,1,6,0.100,18533.000,0.200,14121.000,0.300,2443.000,0.500,323.000,1.000,134.000,5.000,0
"07/10/06","03:05:20","AMMA06",34793.000,"cc",28346.217,6.00,2834.622,1,6,0.100,18477.000,0.200,13823.000,0.300,2220.000,0.500,185.000,1.000,88.000,5.000,0
"07/10/06","03:05:26","AMMA06",35009.000,"cc",28276.182,6.00,2827.618,1,6,0.100,18576.000,0.200,14101.000,0.300,2137.000,0.500,122.000,1.000,73.000,5.000,0
"07/10/06","03:05:32","AMMA06",34307.000,"cc",28315.342,6.00,2831.534,1,6,0.100,18288.000,0.200,13771.000,0.300,2059.000,0.500,133.000,1.000,56.000,5.000,0
"07/10/06","03:05:38","AMMA06",34376.000,"cc",28352.398,6.00,2835.240,1,6,0.100,18125.000,0.200,13928.000,0.300,2157.000,0.500,116.000,1.000,50.000,5.000,0
"07/10/06","03:05:44","AMMA06",34326.000,"cc",28316.590,6.00,2831.659,1,6,0.100,18100.000,0.200,13883.000,0.300,2161.000,0.500,112.000,1.000,70.000,5.000,0
"07/10/06","03:05:50","AMMA06",34057.000,"cc",28338.688,6.00,2833.869,1,6,0.100,18097.000,0.200,13596.000,0.300,2153.000,0.500,155.000,1.000,56.000,5.000,0
"07/10/06","03:05:56","AMMA06",34399.000,"cc",28237.867,6.00,2823.787,1,6,0.100,18123.000,0.200,13982.000,0.300,2117.000,0.500,127.000,1.000,50.000,5.000,0
"07/10/06","03:06:02","AMMA06",33880.000,"cc",28334.604,6.00,2833.460,1,6,0.100,17753.000,0.200,13874.000,0.300,2064.000,0.500,138.000,1.000,51.000,5.000,0
"07/10/06","03:06:08","AMMA06",34391.000,"cc",28350.527,6.00,2835.053,1,6,0.100,18050.000,0.200,13949.000,0.300,2200.000,0.500,129.000,1.000,63.000,5.000,0
"07/10/06","03:06:14","AMMA06",34419.000,"cc",28315.729,6.00,2831.573,1,6,0.100,17686.000,0.200,14293.000,0.300,2239.000,0.500,140.000,1.000,61.000,5.000,0
"07/10/06","03:06:20","AMMA06",34828.000,"cc",28305.150,6.00,2830.515,1,6,0.100,18024.000,0.200,14343.000,0.300,2284.000,0.500,123.000,1.000,54.000,5.000,0
"07/10/06","03:06:26","AMMA06",34886.000,"cc",28312.773,6.00,2831.278,1,6,0.100,18218.000,0.200,14231.000,0.300,2259.000,0.500,128.000,1.000,50.000,5.000,0
"07/10/06","03:06:32","AMMA06",34560.000,"cc",28339.906,6.00,2833.991,1,6,0.100,17910.000,0.200,14167.000,0.300,2285.000,0.500,132.000,1.000,66.000,5.000,0
"07/10/06","03:06:38","AMMA06",34942.000,"cc",28333.240,6.00,2833.324,1,6,0.100,18048.000,0.200,14440.000,0.300,2266.000,0.500,135.000,1.000,53.000,5.000,0
"07/10/06","03:06:44","AMMA06",34182.000,"cc",28307.662,6.00,2830.766,1,6,0.100,17804.000,0.200,14002.000,0.300,2209.000,0.500,123.000,1.000,44.000,5.000,0
"07/10/06","03:06:50","AMMA06",34635.000,"cc",28284.568,6.00,2828.457,1,6,0.100,17904.000,0.200,14294.000,0.300,2260.000,0.500,123.000,1.000,54.000,5.000,0
"07/10/06","03:06:56","AMMA06",34499.000,"cc",28311.773,6.00,2831.178,1,6,0.100,17834.000,0.200,14271.000,0.300,2208.000,0.500,125.000,1.000,61.000,5.000,0
"07/10/06","03:07:02","AMMA06",33968.000,"cc",28317.367,6.00,2831.737,1,6,0.100,17616.000,0.200,14027.000,0.300,2151.000,0.500,115.000,1.000,59.000,5.000,0
"07/10/06","03:07:08","AMMA06",34542.000,"cc",28351.236,6.00,2835.124,1,6,0.100,17955.000,0.200,14198.000,0.300,2193.000,0.500,138.000,1.000,58.000,5.000,0
"07/10/06","03:07:14","AMMA06",34066.000,"cc",28307.787,6.00,2830.779,1,6,0.100,17696.000,0.200,13971.000,0.300,2228.000,0.500,116.000,1.000,55.000,5.000,0
"07/10/06","03:07:20","AMMA06",34031.000,"cc",28300.670,6.00,2830.067,1,6,0.100,17545.000,0.200,14092.000,0.300,2198.000,0.500,149.000,1.000,47.000,5.000,0
"07/10/06","03:07:26","AMMA06",34346.000,"cc",28311.250,6.00,2831.125,1,6,0.100,17594.000,0.200,14269.000,0.300,2274.000,0.500,146.000,1.000,63.000,5.000,0
"07/10/06","03:07:32","AMMA06",34466.000,"cc",28342.565,6.00,2834.257,1,6,0.100,17936.000,0.200,14098.000,0.300,2254.000,0.500,124.000,1.000,54.000,5.000,0
"07/10/06","03:07:38","AMMA06",34640.000,"cc",28296.871,6.00,2829.687,1,6,0.100,18020.000,0.200,14226.000,0.300,2223.000,0.500,113.000,1.000,58.000,5.000,0
"07/10/06","03:07:44","AMMA06",34529.000,"cc",28364.379,6.00,2836.438,1,6,0.100,17796.000,0.200,14306.000,0.300,2237.000,0.500,139.000,1.000,51.000,5.000,0
"07/10/06","03:07:50","AMMA06",34700.000,"cc",28339.520,6.00,2833.952,1,6,0.100,18133.000,0.200,14186.000,0.300,2197.000,0.500,133.000,1.000,51.000,5.000,0
"07/10/06","03:07:56","AMMA06",34755.000,"cc",28270.203,6.00,2827.021,1,6,0.100,18224.000,0.200,14153.000,0.300,2194.000,0.500,133.000,1.000,51.000,5.000,0
"07/10/06","03:08:02","AMMA06",35196.000,"cc",28295.846,6.00,2829.585,1,6,0.100,18407.000,0.200,14177.000,0.300,2346.000,0.500,185.000,1.000,81.000,5.000,0
"07/10/06","03:08:08","AMMA06",34367.000,"cc",28349.688,6.00,2834.969,1,6,0.100,17992.000,0.200,13934.000,0.300,2208.000,0.500,163.000,1.000,70.000,5.000,0
"07/10/06","03:08:14","AMMA06",34618.000,"cc",28271.576,6.00,2827.158,1,6,0.100,18266.000,0.200,13965.000,0.300,2196.000,0.500,125.000,1.000,66.000,5.000,0
"07/10/06","03:08:20","AMMA06",34390.000,"cc",28334.951,6.00,2833.495,1,6,0.100,18030.000,0.200,14040.000,0.300,2140.000,0.500,125.000,1.000,55.000,5.000,0
"07/10/06","03:08:26","AMMA06",34394.000,"cc",28383.992,6.00,2838.399,1,6,0.100,18124.000,0.200,13941.000,0.300,2145.000,0.500,126.000,1.000,58.000,5.000,0
"07/10/06","03:08:32","AMMA06",34544.000,"cc",28228.168,6.00,2822.817,1,6,0.100,18166.000,0.200,14054.000,0.300,2109.000,0.500,147.000,1.000,68.000,5.000,0
"07/10/06","03:08:38","AMMA06",35173.000,"cc",28293.775,6.00,2829.378,1,6,0.100,18443.000,0.200,14325.000,0.300,2238.000,0.500,129.000,1.000,38.000,5.000,0
"07/10/06","03:08:44","AMMA06",35076.000,"cc",28337.301,6.00,2833.730,1,6,0.100,18238.000,0.200,14364.000,0.300,2264.000,0.500,144.000,1.000,66.000,5.000,0
"07/10/06","03:08:50","AMMA06",36140.000,"cc",28355.688,6.00,2835.569,1,6,0.100,18747.000,0.200,14631.000,0.300,2408.000,0.500,242.000,1.000,112.000,5.000,0
"07/10/06","03:08:56","AMMA06",35781.000,"cc",28291.772,6.00,2829.177,1,6,0.100,18462.000,0.200,14671.000,0.300,2330.000,0.500,222.000,1.000,96.000,5.000,0
"07/10/06","03:09:02","AMMA06",36050.000,"cc",28229.889,6.00,2822.989,1,6,0.100,18635.000,0.200,14819.000,0.300,2331.000,0.500,179.000,1.000,86.000,5.000,0
"07/10/06","03:09:08","AMMA06",35734.000,"cc",28335.111,6.00,2833.511,1,6,0.100,18674.000,0.200,14511.000,0.300,2300.000,0.500,167.000,1.000,82.000,5.000,0
"07/10/06","03:09:14","AMMA06",35528.000,"cc",28340.027,6.00,2834.003,1,6,0.100,18376.000,0.200,14513.000,0.300,2396.000,0.500,174.000,1.000,69.000,5.000,0
"07/10/06","03:09:20","AMMA06",35384.000,"cc",28322.742,6.00,2832.274,1,6,0.100,18578.000,0.200,14359.000,0.300,2230.000,0.500,140.000,1.000,77.000,5.000,0
"07/10/06","03:09:26","AMMA06",36120.000,"cc",28305.592,6.00,2830.559,1,6,0.100,18668.000,0.200,14697.000,0.300,2393.000,0.500,256.000,1.000,106.000,5.000,0
"07/10/06","03:09:32","AMMA06",35811.000,"cc",28314.109,6.00,2831.411,1,6,0.100,18660.000,0.200,14448.000,0.300,2395.000,0.500,229.000,1.000,79.000,5.000,0
"07/10/06","03:09:38","AMMA06",35565.000,"cc",28331.592,6.00,2833.159,1,6,0.100,18467.000,0.200,14607.000,0.300,2184.000,0.500,234.000,1.000,73.000,5.000,0
"07/10/06","03:09:44","AMMA06",35799.000,"cc",28304.916,6.00,2830.492,1,6,0.100,18660.000,0.200,14624.000,0.300,2256.000,0.500,182.000,1.000,77.000,5.000,0
"07/10/06","03:09:50","AMMA06",35630.000,"cc",28347.641,6.00,2834.764,1,6,0.100,18707.000,0.200,14481.000,0.300,2216.000,0.500,158.000,1.000,68.000,5.000,0
"07/10/06","03:09:56","AMMA06",35455.000,"cc",28315.250,6.00,2831.525,1,6,0.100,18412.000,0.200,14484.000,0.300,2322.000,0.500,168.000,1.000,69.000,5.000,0
"07/10/06","03:10:02","AMMA06",35619.000,"cc",28284.938,6.00,2828.494,1,6,0.100,18665.000,0.200,14531.000,0.300,2196.000,0.500,160.000,1.000,67.000,5.000,0
"07/10/06","03:10:08","AMMA06",35906.000,"cc",28318.607,6.00,2831.861,1,6,0.100,18527.000,0.200,14825.000,0.300,2277.000,0.500,186.000,1.000,91.000,5.000,0
"07/10/06","03:10:14","AMMA06",34789.000,"cc",28374.955,6.00,2837.496,1,6,0.100,18211.000,0.200,14175.000,0.300,2198.000,0.500,141.000,1.000,64.000,5.000,0
"07/10/06","03:10:20","AMMA06",35498.000,"cc",28325.623,6.00,2832.563,1,6,0.100,18604.000,0.200,14417.000,0.300,2260.000,0.500,154.000,1.000,63.000,5.000,0
"07/10/06","03:10:26","AMMA06",35263.000,"cc",28355.723,6.00,2835.573,1,6,0.100,18386.000,0.200,14479.000,0.300,2213.000,0.500,127.000,1.000,58.000,5.000,0
"07/10/06","03:10:32","AMMA06",35186.000,"cc",28266.895,6.00,2826.690,1,6,0.100,18483.000,0.200,14331.000,0.300,2179.000,0.500,130.000,1.000,63.000,5.000,0
"07/10/06","03:10:38","AMMA06",35493.000,"cc",28264.877,6.00,2826.488,1,6,0.100,18612.000,0.200,14405.000,0.300,2277.000,0.500,136.000,1.000,63.000,5.000,0
"07/10/06","03:10:44","AMMA06",35362.000,"cc",28346.299,6.00,2834.630,1,6,0.100,18319.000,0.200,14593.000,0.300,2231.000,0.500,164.000,1.000,55.000,5.000,0
"07/10/06","03:10:50","AMMA06",35274.000,"cc",28286.244,6.00,2828.625,1,6,0.100,18204.000,0.200,14598.000,0.300,2289.000,0.500,126.000,1.000,57.000,5.000,0
"07/10/06","03:10:56","AMMA06",34776.000,"cc",28314.313,6.00,2831.431,1,6,0.100,18225.000,0.200,14152.000,0.300,2203.000,0.500,139.000,1.000,57.000,5.000,0
"07/10/06","03:11:02","AMMA06",34740.000,"cc",28314.469,6.00,2831.447,1,6,0.100,18243.000,0.200,14077.000,0.300,2248.000,0.500,116.000,1.000,56.000,5.000,0
"07/10/06","03:11:08","AMMA06",34628.000,"cc",28349.186,6.00,2834.919,1,6,0.100,17940.000,0.200,14363.000,0.300,2136.000,0.500,136.000,1.000,53.000,5.000,0
"07/10/06","03:11:14","AMMA06",34518.000,"cc",28327.830,6.00,2832.783,1,6,0.100,17950.000,0.200,14155.000,0.300,2228.000,0.500,120.000,1.000,65.000,5.000,0
"07/10/06","03:11:20","AMMA06",34848.000,"cc",28290.602,6.00,2829.060,1,6,0.100,18131.000,0.200,14308.000,0.300,2231.000,0.500,115.000,1.000,63.000,5.000,0
"07/10/06","03:11:26","AMMA06",34822.000,"cc",28358.162,6.00,2835.816,1,6,0.100,18240.000,0.200,14200.000,0.300,2208.000,0.500,121.000,1.000,53.000,5.000,0
"07/10/06","03:11:32","AMMA06",34891.000,"cc",28361.147,6.00,2836.115,1,6,0.100,18021.000,0.200,14309.000,0.300,2343.000,0.500,158.000,1.000,60.000,5.000,0
"07/10/06","03:11:38","AMMA06",35147.000,"cc",28284.227,6.00,2828.423,1,6,0.100,18219.000,0.200,14428.000,0.300,2291.000,0.500,138.000,1.000,71.000,5.000,0
"07/10/06","03:11:44","AMMA06",34820.000,"cc",28288.393,6.00,2828.839,1,6,0.100,18153.000,0.200,14225.000,0.300,2266.000,0.500,123.000,1.000,53.000,5.000,0
"07/10/06","03:11:50","AMMA06",34884.000,"cc",28325.738,6.00,2832.574,1,6,0.100,18163.000,0.200,14273.000,0.300,2269.000,0.500,132.000,1.000,47.000,5.000,0
"07/10/06","03:11:56","AMMA06",34707.000,"cc",28294.080,6.00,2829.408,1,6,0.100,17902.000,0.200,14247.000,0.300,2348.000,0.500,141.000,1.000,69.000,5.000,0
"07/10/06","03:12:02","AMMA06",34839.000,"cc",28322.488,6.00,2832.249,1,6,0.100,17964.000,0.200,14352.000,0.300,2317.000,0.500,144.000,1.000,62.000,5.000,0
"07/10/06","03:12:08","AMMA06",34901.000,"cc",28328.582,6.00,2832.858,1,6,0.100,17891.000,0.200,14500.000,0.300,2321.000,0.500,131.000,1.000,58.000,5.000,0
"07/10/06","03:12:14","AMMA06",34629.000,"cc",28338.357,6.00,2833.836,1,6,0.100,17940.000,0.200,14144.000,0.300,2341.000,0.500,141.000,1.000,63.000,5.000,0
"07/10/06","03:12:20","AMMA06",35051.000,"cc",28278.387,6.00,2827.839,1,6,0.100,17896.000,0.200,14604.000,0.300,2380.000,0.500,121.000,1.000,50.000,5.000,0
"07/10/06","03:12:26","AMMA06",35005.000,"cc",28317.797,6.00,2831.780,1,6,0.100,18103.000,0.200,14366.000,0.300,2340.000,0.500,132.000,1.000,64.000,5.000,0
"07/10/06","03:12:32","AMMA06",34836.000,"cc",28353.008,6.00,2835.301,1,6,0.100,17823.000,0.200,14435.000,0.300,2400.000,0.500,116.000,1.000,62.000,5.000,0
"07/10/06","03:12:38","AMMA06",35494.000,"cc",28309.766,6.00,2830.977,1,6,0.100,17871.000,0.200,14934.000,0.300,2504.000,0.500,128.000,1.000,57.000,5.000,0
"07/10/06","03:12:44","AMMA06",35267.000,"cc",28334.818,6.00,2833.482,1,6,0.100,18052.000,0.200,14672.000,0.300,2369.000,0.500,108.000,1.000,66.000,5.000,0
"07/10/06","03:12:50","AMMA06",35231.000,"cc",28284.012,6.00,2828.401,1,6,0.100,17828.000,0.200,14817.000,0.300,2368.000,0.500,146.000,1.000,72.000,5.000,0
"07/10/06","03:12:56","AMMA06",34931.000,"cc",28355.836,6.00,2835.584,1,6,0.100,17836.000,0.200,14496.000,0.300,2424.000,0.500,121.000,1.000,54.000,5.000,0
"07/10/06","03:13:02","AMMA06",35089.000,"cc",28293.277,6.00,2829.328,1,6,0.100,18039.000,0.200,14477.000,0.300,2361.000,0.500,151.000,1.000,61.000,5.000,0
"07/10/06","03:13:08","AMMA06",35408.000,"cc",28271.443,6.00,2827.145,1,6,0.100,18196.000,0.200,14648.000,0.300,2374.000,0.500,132.000,1.000,58.000,5.000,0
"07/10/06","03:13:14","AMMA06",34891.000,"cc",28332.379,6.00,2833.238,1,6,0.100,17817.000,0.200,14579.000,0.300,2285.000,0.500,144.000,1.000,66.000,5.000,0
"07/10/06","03:13:20","AMMA06",35127.000,"cc",28316.297,6.00,2831.630,1,6,0.100,17947.000,0.200,14500.000,0.300,2462.000,0.500,157.000,1.000,61.000,5.000,0
"07/10/06","03:13:26","AMMA06",35041.000,"cc",28290.674,6.00,2829.068,1,6,0.100,17969.000,0.200,14560.000,0.300,2316.000,0.500,132.000,1.000,64.000,5.000,0
"07/10/06","03:13:32","AMMA06",35093.000,"cc",28305.063,6.00,2830.506,1,6,0.100,18002.000,0.200,14635.000,0.300,2299.000,0.500,105.000,1.000,52.000,5.000,0
"07/10/06","03:13:38","AMMA06",34609.000,"cc",28334.012,6.00,2833.401,1,6,0.100,17755.000,0.200,14414.000,0.300,2246.000,0.500,124.000,1.000,70.000,5.000,0
"07/10/06","03:13:44","AMMA06",34770.000,"cc",28337.201,6.00,2833.720,1,6,0.100,17852.000,0.200,14443.000,0.300,2241.000,0.500,164.000,1.000,70.000,5.000,0
"07/10/06","03:13:50","AMMA06",35371.000,"cc",28331.969,6.00,2833.197,1,6,0.100,18038.000,0.200,14739.000,0.300,2370.000,0.500,158.000,1.000,66.000,5.000,0
"07/10/06","03:13:56","AMMA06",35194.000,"cc",28299.705,6.00,2829.971,1,6,0.100,18248.000,0.200,14435.000,0.300,2322.000,0.500,145.000,1.000,44.000,5.000,0
"07/10/06","03:14:02","AMMA06",35370.000,"cc",28347.457,6.00,2834.746,1,6,0.100,18284.000,0.200,14620.000,0.300,2266.000,0.500,136.000,1.000,64.000,5.000,0
"07/10/06","03:14:08","AMMA06",35027.000,"cc",28276.402,6.00,2827.640,1,6,0.100,17919.000,0.200,14619.000,0.300,2323.000,0.500,121.000,1.000,45.000,5.000,0
"07/10/06","03:14:14","AMMA06",35266.000,"cc",28346.537,6.00,2834.654,1,6,0.100,18069.000,0.200,14582.000,0.300,2413.000,0.500,139.000,1.000,63.000,5.000,0
"07/10/06","03:14:20","AMMA06",34916.000,"cc",28280.043,6.00,2828.004,1,6,0.100,17848.000,0.200,14513.000,0.300,2351.000,0.500,143.000,1.000,61.000,5.000,0